Regional Weather Roundup
Issued by NWS Upton, NY

Current Version | Previous Version | Graphics & Text | Print | Product List | Glossary Off
Versions: 1 2 3 4 5 6 7 8 9 10 11 12 13 14 15 16 17 18 19 20 21 22 23 24 25 26 27

000
ASUS41 KOKX 100808
RWROKX

REGIONAL WEATHER ROUNDUP
NATIONAL WEATHER SERVICE NEW YORK NY
300 AM EST SUN DEC 10 2017

NOTE: "FAIR" INDICATES FEW OR NO CLOUDS BELOW 12,000 FEET WITH NO
SIGNIFICANT WEATHER AND/OR OBSTRUCTIONS TO VISIBILITY.

NYZ071-072-176-178-NJZ106-104-100900-
NEW YORK CITY METRO AREA

CITY           SKY/WX    TMP DP  RH WIND       PRES   REMARKS
Central Park   PTCLDY    31  28  89 CALM      29.77R FOG
Bronx Bot Gard   N/A     32  28  86 W3        29.74F
Bronx Lehman C   N/A     32  28  86 W7          N/A  WCI  26
LaGuardia APRT MOCLDY    34  28  79 W12       29.75R WCI  25
Queens College   N/A     32  28  86 W7          N/A  WCI  26
Kennedy INTL   CLOUDY    33  29  85 W9        29.76R WCI  25
Breezy Point     N/A     32 N/A N/A W13         N/A  WCI  22
Brooklyn Coll    N/A     34  30  86 W12         N/A  WCI  25
Staten Island    N/A     32  32 100 W7          N/A  WCI  26
Newark/Liberty MOCLDY    31  27  85 W12       29.77R WCI  22
Teterboro      PTCLDY    28  25  88 CALM      29.75R
$$

NYZ177-179-078>081-100900-
LONG ISLAND NEW YORK

CITY           SKY/WX    TMP DP  RH WIND       PRES   REMARKS
Jones Beach      N/A     34 N/A N/A NW12        N/A  WCI  25
Wantagh          N/A     32  32 100 W6          N/A  WCI  26
Matinecock PT    N/A     34 N/A N/A W14         N/A  WCI  24
Farmingdale    CLOUDY    32  29  88 W8        29.74R WCI  25
MacArthur/ISP  CLOUDY    33  31  92 W8        29.72R WCI  26
Shirley        CLOUDY    33  32  96 W6        29.71S WCI  28
Mt Sinai Harb    N/A    N/A N/A N/A NW9         N/A
Westhampton    CLOUDY    33  31  92 W3        29.71R
East Hampton   CLOUDY    32  31  94 NW3       29.68S
Southold         N/A     34  32  93 N8          N/A  WCI  27
Montauk          N/A     37  32  82 NW6       29.69R WCI  32
$$

NYZ052-065-067-100900-
HUDSON VALLEY

CITY           SKY/WX    TMP DP  RH WIND       PRES   REMARKS
White Plains   PTCLDY    30  27  88 W6        29.71R WCI  24
Larchmont Harb   N/A     32 N/A N/A W9          N/A  WCI  24
Croton On Huds   N/A     32 N/A N/A NW7         N/A  WCI  26
Somers           N/A     28  27  93 CALM        N/A
Brewster         N/A     28  27  93 NW3         N/A
Newburgh       CLOUDY    25  25 100 CALM      29.73S FOG
Montgomery     CLEAR     16  15  96 SW7       29.72R FOG     WCI   6
Otisville        N/A     25  21  86 W5          N/A  WCI  19
Warwick          N/A     27  25  93 W7          N/A  WCI  19
Suffern          N/A     30  23  74 W6          N/A  WCI  24
Poughkeepsie   CLOUDY    28  26  92 CALM      29.73R
Albany         CLEAR     21  19  92 CALM      29.72S
$$

NJZ001-105-106-008-010-013-015-019>022-104-100900-
NEW JERSEY

CITY           SKY/WX    TMP DP  RH WIND       PRES   REMARKS
Newark/Liberty MOCLDY    31  27  85 W12       29.77R WCI  22
Teterboro      PTCLDY    28  25  88 CALM      29.75R
Caldwell       CLEAR     27  26  96 CALM      29.77R
Somerville     PTCLDY    26  23  88 CALM      29.76R
Linden         PTSUNNY   30  27  87 CALM      29.77R
Perth Amboy      N/A    N/A N/A N/A W10         N/A
Sussex         CLEAR     22  21  96 CALM      29.75R
Andover          N/A     23  21  92 CALM      29.75S
Trenton        CLEAR     28  24  85 W9        29.79R WCI  19
Millville      MOCLDY    28  26  92 W8        29.83R WCI  20
Atlantic City  CLOUDY    31  30  96 W10G18    29.81R FOG     WCI  22
Wrightstown    CLOUDY    29  26  88 W8        29.77R WCI  21
Toms River     CLOUDY    28  27  96 W9        29.79R WCI  19
Belmar         CLOUDY    29  28  96 W9        29.78R WCI  20
$$

PAZ047>061-062-071-100900-
EASTERN PENNSYLVANIA

CITY           SKY/WX    TMP DP  RH WIND       PRES   REMARKS
Philadelphia   CLOUDY    30  24  78 W12       29.82S WCI  20
Allentown      PTCLDY    21  17  84 SW8       29.79R FOG     WCI  11
Scranton       CLOUDY    23  18  81 SW3       29.76R
$$

CTZ002-004>006-009-010-012-RIZ004-006-007-MAZ004-011-015-100900-
SOUTHERN NEW ENGLAND
 IN CT

CITY           SKY/WX    TMP DP  RH WIND       PRES   REMARKS
Bradley INTL   LGT SNOW  30  28  92 CALM      29.68S
Hartford       CLOUDY    30  29  96 CALM      29.69F
Danbury        CLOUDY    29  26  89 SW3       29.72R
Wtrbury/Oxford FLURRIES  28  26  92 CALM      29.68R
Norwalk Harbor   N/A    N/A N/A N/A NW12        N/A
Bridgeport     CLOUDY    32  27  81 W6        29.72R WCI  26
Meriden        CLOUDY    28  27  96 CALM      29.69S
New Haven      CLOUDY    33  28  81 NW7       29.70R WCI  27
Chester        FAIR      30  28  93 NW7       29.67R WCI  23
Groton         CLOUDY    32  28  85 N8        29.67R WCI  25
Wilimantic     LGT SNOW  31  27  85 CALM      29.67S FOG

 IN RI

CITY           SKY/WX    TMP DP  RH WIND       PRES   REMARKS
Providence     CLOUDY    33  31  92 NW6       29.66R WCI  28
Block Island   LGT RAIN  33  32  96 NW8       29.67R WCI  26
Westerly       CLOUDY    32  30  92 NW5       29.68R WCI  27
 IN MA

CITY           SKY/WX    TMP DP  RH WIND       PRES   REMARKS
Boston         CLOUDY    31  28  89 W13       29.65R WCI  21
Worcester      LGT SNOW  27  23  85 W10       29.61R FOG     WCI  17
Westfield      FLURRIES  28  28 100 CALM      29.67S
Provincetown   CLOUDY    37  34  89 N16       29.59F WCI  28
Nantucket      CLOUDY    40  38  93 N16G25    29.60R WCI  31
$$

ANZ330-335-338-340-345-350-353-355-100900-
COASTAL MARINE OBSERVATIONS


STATION/POSITION TIME  SKY/WX   TEMP    WIND        PRES    VSBY  WAVE
                                AIR SEA DIR/SP/G                  HT/PER
                 (UTC)          (F)     (DEG/KT/KT) (MB)    (MI)  (FT/S)
NY HARB ENTRANCE 0750            38 52  290/ 17/ 23 1006.6          5/ 7
20 S FIRE ISLAND 0650            37 53  320/ 16/ 19 1006.0          7/ 8
GREAT SOUTH BAY  0730            34 45  290/ 12/ 12   N/A
HUDSON CANYON    0750            43 56  310/ 19/ 23 1005.2         10/ 8
KINGS POINT      0724            33 46  320/ 10/ 12 1007.9
EXECUTION ROCKS  0745            34     280/ 12/ 16   N/A
WESTERN LI SOUND 0649            32     300/ 12/ 16   N/A           1/ 2
CENTRAL LI SOUND 0715            36     350/ 12/ 14   N/A           1
ROBBINS REEF     0724            31     270/  9/ 11 1008.0
$$


>>>>>>>>>>>>>>>>>>>>>>>>>>>> KEY <<<<<<<<<<<<<<<<<<<<<<<<<<<
>                                                          <
>     SKY/WX - Sky Condition/Present Weather               <
>     TMP    - Temperature in Fahrenheit                   <
>     DP     - Dew Point in Fahrenheit                     <
>     RH     - Relative Humidity in Percent                <
>     WIND   - Direction (from) and Speed in MPH           <
>     PRES   - Mean Sea Level Pressure (inches of Hg)      <
>     WCI    - Wind Chill Index                            <
>     VSB    - VISIBILITY IN MILES                         <
>     HX     - HEAT INDEX                                  <
>     TC     - TEMPERATURE IN CELSIUS                      <
>     VRB    - VARIABLE WIND DIRECTION                     <
>                                                          <
>>>>>>>>>>>>>>>>>>>>>>>>>>>> KEY <<<<<<<<<<<<<<<<<<<<<<<<<<<




USA.gov is the U.S. government's official web portal to all federal, state and local government web resources and services.